Temp
21 21 21 21 22 22 22 23 23 23 23 23 23 22 22 22 22 22 22 22 22 23
20 21 21 21 22 22 23 23 23 23 23 23 23 22 22 22 22 22 22 22 23 23
21 21 21 21 22 22 23 23 23 23 23 23 23 22 22 22 22 22 21 22 22 23
21 21 21 21 22 22 23 23 23 23 23 22 22 21 21 21 21 21 21 21 22 22
22 22 21 22 22 22 23 23 23 23 22 21 21 21 22 21 20 20 20 21 21 21
22 22 22 22 22 22 22 23 22 22 22 21 21 21 20 20 20 20 20 20 20 20
22 22 22 22 22 23 22 23 22 21 21 21 21 20 20 20 19 19 19 19 19 19
22 22 22 22 22 22 22 22 22 22 21 20 20 20 20 19 19 19 18 18 19 19
23 22 22 22 22 21 22 20 21 21 20 20 20 19 19 19 19 18 18 19 19 18
23 22 22 22 22 21 21 20 20 20 20 20 19 19 19 19 19 18 19 18 18 18
23 22 22 22 22 22 21 21 21 21 20 20 19 19 19 19 19 19 18 18 18 18
23 22 22 22 22 22 21 21 21 20 20 19 19 19 19 19 19 18 18 18 17 17
23 23 23 23 22 21 21 21 20 20 20 20 20 19 19 19 19 18 18 17 17 17
23 24 24 23 22 21 20 20 20 20 20 20 20 19 19 19 19 19 18 18 17 17
Height
817 820 824 828 830 832 834 834 836 837 837 838 839 839 839 840 840 840 841 840 838 837
814 817 821 825 829 831 832 833 833 834 834 836 835 837 837 838 840 840 840 840 838 837
810 814 818 822 826 829 830 831 831 832 833 834 834 834 836 838 839 840 840 840 838 838
806 811 815 819 823 826 828 829 828 830 831 832 833 834 836 838 839 840 841 840 839 840
804 808 812 816 820 824 825 826 827 828 830 831 833 835 836 837 839 841 841 841 840 841
803 807 810 814 819 822 824 825 826 828 829 832 834 835 837 838 840 841 843 841 842 843
802 806 810 814 818 821 822 824 825 827 827 831 833 836 838 839 841 843 843 841 844 844
800 805 810 814 817 819 821 823 823 823 826 830 833 835 838 840 842 843 842 843 845 845
799 804 809 813 815 818 820 822 823 824 826 829 833 836 839 841 842 841 842 844 845 847
798 802 806 810 813 816 818 821 822 823 825 828 833 836 839 841 841 842 844 846 847 849
794 799 804 806 809 812 815 817 819 822 826 830 832 836 838 839 840 843 845 847 849 851
789 795 799 802 806 809 812 816 819 822 825 828 831 834 836 837 840 843 845 847 850 852
784 789 794 798 801 806 810 813 818 821 824 827 829 831 833 835 838 841 843 846 849 852
780 784 789 793 798 803 807 811 814 818 821 824 826 829 830 833 836 838 841 844 847 850
Wind_Speed
25 22 21 18 14 13 12 13 12 11 11 10 7 8 7 6 6 6 4 1 2 4
28 25 23 21 15 12 10 10 11 9 11 12 9 9 9 8 7 7 6 4 4 6
25 24 23 22 21 17 10 9 7 7 9 9 10 11 11 10 8 7 6 7 9 9
22 21 21 20 18 19 13 11 11 11 10 10 13 14 12 10 9 8 8 9 11 11
20 19 20 21 18 18 13 11 12 12 10 10 12 13 11 11 10 9 10 10 11 11
22 20 20 20 18 16 12 12 14 14 10 12 14 14 12 11 10 8 9 9 9 10
22 22 21 21 18 15 14 16 13 12 13 14 14 15 13 11 10 10 9 9 9 8
23 23 20 20 20 17 15 19 14 10 15 12 16 16 13 11 11 11 10 10 9 7
25 24 21 19 17 17 16 17 18 18 16 16 15 15 13 11 10 12 14 15 12 10
26 26 24 22 20 19 21 22 23 18 15 16 16 17 15 11 11 15 15 15 14 12
30 28 27 23 22 21 21 21 18 15 18 19 18 19 18 13 12 15 16 14 11 10
36 32 32 27 26 26 23 22 20 20 21 22 21 20 19 16 16 18 17 14 12 11
38 37 34 29 28 27 27 25 22 22 23 22 22 21 23 21 20 21 18 18 18 13
38 38 36 31 31 29 28 26 24 24 23 23 22 22 25 26 24 21 20 17 18 17
Wind_Direction
220 221 227 234 237 239 249 256 262 259 252 247 241 255 253 224 206 200 205 184 174 141
223 224 227 225 227 235 243 246 274 251 259 224 240 238 204 194 190 191 200 200 185 170
222 222 228 226 232 235 235 232 221 246 241 229 223 204 182 178 175 186 180 163 151 151
216 214 215 223 222 222 226 224 227 234 230 219 203 174 177 169 168 173 157 154 145 135
206 206 211 212 210 206 217 222 217 211 196 166 167 175 182 174 169 159 153 147 142 143
199 198 199 198 194 195 201 201 178 170 170 175 180 178 176 173 165 163 162 147 150 147
197 194 195 188 188 188 190 182 160 170 168 179 184 179 169 165 159 161 153 148 152 145
190 191 193 196 192 189 187 185 180 172 179 182 177 175 172 171 169 170 146 143 144 149
191 194 198 196 193 194 200 190 181 182 184 173 178 177 178 179 184 164 150 144 138 132
197 197 197 196 200 198 194 189 189 180 178 177 181 182 187 184 169 159 159 155 144 141
193 196 196 198 207 210 200 193 198 197 190 189 189 191 191 184 174 172 170 167 167 171
197 199 201 207 209 210 207 204 205 200 197 197 195 195 194 190 185 186 187 190 196 194
200 201 201 207 207 208 207 209 205 205 205 204 203 200 201 201 197 196 207 214 212 208
200 205 208 207 207 206 206 208 205 207 206 207 208 208 206 208 209 208 207 212 205 210